EDT,Max TemperatureF,Mean TemperatureF,Min TemperatureF,Max Dew PointF,MeanDew PointF,Min DewpointF,Max Humidity, Mean Humidity, Min Humidity, Max Sea Level PressureIn, Mean Sea Level PressureIn, Min Sea Level PressureIn, Max VisibilityMiles, Mean VisibilityMiles, Min VisibilityMiles, Max Wind SpeedMPH, Mean Wind SpeedMPH, Max Gust SpeedMPH,PrecipitationIn, CloudCover, Events, WindDirDegrees
2012-10-1,61,56,51,54,50,44,93,78,62,29.88,29.76,29.68,10,7,2,18,8,25,0.73,5,Rain,44
2012-10-2,60,57,53,58,55,52,100,95,90,29.88,29.75,29.66,10,4,2,20,7,26,0.19,8,Rain,53
2012-10-3,72,64,55,55,53,50,100,75,49,30.10,29.99,29.88,10,9,3,16,7,21,0.00,5,,204
2012-10-4,77,64,51,57,54,49,93,72,50,30.19,30.14,30.11,10,10,10,16,7,22,0.00,2,,213
2012-10-5,62,51,40,56,45,38,96,79,62,30.17,30.09,30.04,10,7,2,16,6,24,1.52,6,Rain-Thunderstorm,352
2012-10-6,53,44,35,40,36,33,100,75,50,30.20,30.14,30.10,10,10,10,12,4,15,0.00,3,,297
2012-10-7,52,43,34,37,33,29,92,67,42,30.21,30.18,30.15,10,10,10,13,3,16,0.00,5,,289
2012-10-8,56,43,30,36,31,28,100,68,35,30.26,30.20,30.13,10,7,0,10,2,14,0.00,1,Fog,220
2012-10-9,63,48,32,40,37,31,96,68,39,30.14,30.05,29.96,10,10,7,17,5,23,0.00,0,,204
2012-10-10,54,44,33,45,35,24,89,62,35,30.26,30.10,29.93,10,10,9,16,7,23,T,3,Rain,293
2012-10-11,60,45,29,38,32,27,92,64,36,30.30,30.25,30.17,10,10,10,13,4,17,0.00,0,,211
2012-10-12,62,50,38,42,39,37,92,69,46,30.36,30.28,30.19,10,10,10,15,4,21,0.00,0,,54
2012-10-13,72,59,45,63,53,38,83,75,67,30.28,30.12,29.96,10,10,9,16,9,23,0.00,4,,175
2012-10-14,73,63,53,62,59,51,86,70,53,29.92,29.78,29.67,10,10,6,33,17,46,0.03,6,Rain,214
2012-10-15,62,52,42,52,42,35,92,64,36,29.98,29.91,29.84,10,10,6,17,6,26,0.00,2,Rain,288
2012-10-16,69,52,35,48,42,35,100,70,40,29.99,29.88,29.75,10,10,9,16,6,22,0.00,0,,161
2012-10-17,70,61,52,55,49,46,77,63,49,29.74,29.63,29.45,10,10,4,23,12,35,0.47,4,Rain-Thunderstorm,187
2012-10-18,62,55,48,55,45,28,93,61,29,29.64,29.55,29.46,10,8,2,28,12,45,0.39,5,Rain,224
2012-10-19,54,50,46,45,43,34,93,70,46,29.73,29.62,29.53,10,9,2,17,8,23,0.26,8,Rain,238
2012-10-20,53,47,40,46,44,39,96,84,71,30.00,29.85,29.73,10,10,4,14,6,16,0.01,7,Rain,250
2012-10-21,71,54,37,49,44,36,96,70,44,30.08,30.03,29.98,10,9,3,14,6,18,0.00,0,,145
2012-10-22,77,68,59,59,52,48,70,57,43,30.06,30.02,29.96,10,10,10,17,8,23,T,4,,187
2012-10-23,77,70,63,56,51,48,63,55,46,30.03,29.99,29.96,10,10,9,17,8,25,T,5,Rain,210
2012-10-24,79,69,58,59,53,49,75,57,39,30.07,30.01,29.97,10,10,7,15,7,18,0.00,1,,191
2012-10-25,78,66,53,57,54,51,86,66,45,29.99,29.93,29.88,10,10,10,20,9,28,0.00,1,,173
2012-10-26,57,48,39,52,41,35,93,82,71,30.22,30.14,29.97,10,9,4,16,9,23,0.17,8,Rain,347
2012-10-27,54,44,34,36,33,30,85,65,44,30.19,30.16,30.12,10,10,10,20,11,24,0.00,0,,3
2012-10-28,51,43,34,34,31,27,96,70,44,30.16,30.14,30.10,10,10,10,20,10,25,0.00,2,,4
2012-10-29,55,45,35,32,27,21,76,52,28,30.14,30.07,29.91,10,10,10,28,13,38,0.00,0,,346
2012-10-30,44,42,39,34,30,28,70,64,57,29.88,29.75,29.70,10,10,9,20,10,30,0.02,5,Rain,312
2012-10-31,48,41,33,31,28,25,75,62,49,29.88,29.81,29.75,10,10,10,17,9,25,0.00,3,,294